Weather reports worldwide

Advertisment
Mont-De-Marsan, France (7607): temperature & dewpoint: 27.06.2020 18:00:00 - 03.07.2020 18:00:00 (CEST)Mont-De-Marsan, France (7607): temperature 5cm: 27.06.2020 18:00:00 - 03.07.2020 18:00:00 (CEST)Mont-De-Marsan, France (7607): temperature -20cm & temperature -100cm: 27.06.2020 18:00:00 - 03.07.2020 18:00:00 (CEST)Mont-De-Marsan, France (7607): wind speed & gusts: 27.06.2020 18:00:00 - 03.07.2020 18:00:00 (CEST)Mont-De-Marsan, France (7607): wind direction: 27.06.2020 18:00:00 - 03.07.2020 18:00:00 (CEST)Mont-De-Marsan, France (7607): reduced air pressure: 27.06.2020 18:00:00 - 03.07.2020 18:00:00 (CEST)Mont-De-Marsan, France (7607): visibility: 27.06.2020 18:00:00 - 03.07.2020 18:00:00 (CEST)Mont-De-Marsan, France (7607): sunshine duration: 27.06.2020 18:00:00 - 03.07.2020 18:00:00 (CEST)Mont-De-Marsan, France (7607): precipitation: 27.06.2020 18:00:00 - 03.07.2020 18:00:00 (CEST)
Date & Time tt [°C] td [°C] tt 5cm [°C] tt -20cm [°C] tt -100cm [°C] ff [km/h] ff [kn] fx [km/h] fx [kn] dd ppp [hPa] vv [km] sd [min] rr [mm]
03.07.2020 18:00:00 21,6 11,9 22,5 22,3 20,5 10 5 24 13 NW 1023,5 60 0 0,0
03.07.2020 17:00:00 22,5 11,2 25,7 22,1 20,6 12 7 29 16 WNW 1023,5 60 16 0,0
03.07.2020 16:00:00 21,8 11,8 25,1 21,8 20,6 8 4 16 8 NNW 1023,6 60 20 0,0
03.07.2020 15:00:00 20,8 12,5 25,3 21,6 20,5 10 5 20 11 WNW 1024,0 60 10 0,0
03.07.2020 14:00:00 20,8 12,5 21,7 21,5 20,5 10 5 24 13 WNW 1024,6 60 22 0,0
03.07.2020 13:00:00 19,2 12,2 19,2 21,4 20,4 8 5 18 10 WNW 1024,8 60 0 0,0
03.07.2020 12:00:00 19,4 11,9 21,4 21,3 20,5 6 3 14 7 W 1024,5 60 6 0,0
03.07.2020 11:00:00 19,9 11,4 20,6 21,3 20,5 6 3 12 7 W 1024,2 60 32 0,0
03.07.2020 10:00:00 18,3 12,1 21,1 21,4 20,5 4 2 10 6 NW 1024,1 60 51 0,0
03.07.2020 09:00:00 17,4 13,9 17,2 21,6 20,4 0 0 5 3 N 1024,0 38 31 0,0
03.07.2020 08:00:00 15,0 13,9 11,0 21,7 20,4 0 0 4 2 N 1024,0 39 45 0,0
03.07.2020 07:00:00 12,3 11,2 7,9 21,9 20,4 0 0 3 2 N 1023,8 19 10 0,0
03.07.2020 06:00:00 12,3 11,0 8,1 22,1 20,4 0 0 3 2 N 1023,4 37 0 0,0
03.07.2020 05:00:00 13,3 11,4 9,0 22,2 20,3 0 0 4 2 N 1023,2 20 0 0,0
03.07.2020 04:00:00 14,7 12,2 12,4 22,4 20,4 3 1 7 4 WSW 1023,3 56 0 0,0
03.07.2020 03:00:00 14,9 12,6 13,9 22,5 20,4 6 3 8 5 W 1023,3 56 0 0,0
03.07.2020 02:00:00 15,0 12,3 13,3 22,6 20,4 4 2 13 7 WNW 1023,3 60 0 0,0
03.07.2020 01:00:00 15,6 12,7 13,3 22,7 20,4 7 4 10 5 WNW 1023,2 60 0 0,0
03.07.2020 00:00:00 16,6 13,1 15,6 22,8 20,4 8 5 13 7 W 1022,8 60 0 0,0
02.07.2020 23:00:00 17,2 13,3 16,1 22,9 20,5 10 5 13 7 W 1022,5 60 0 0,0
02.07.2020 22:00:00 17,7 13,6 16,6 22,9 20,4 10 5 19 10 W 1021,8 60 15 0,0
02.07.2020 21:00:00 19,0 13,8 18,6 22,9 20,4 11 6 19 11 W 1021,5 60 2 0,0
02.07.2020 20:00:00 19,1 13,5 19,4 22,9 20,5 13 7 21 11 W 1021,1 60 0 0,0
02.07.2020 19:00:00 19,5 13,2 19,7 22,8 20,5 12 6 19 10 WNW 1020,7 60 0 0,0
02.07.2020 18:00:00 19,9 13,1 20,5 22,7 20,5 13 7 22 12 WNW 1020,3 60 0 0,0
02.07.2020 17:00:00 20,1 14,5 21,3 22,6 20,4 14 8 22 12 WNW 1020,1 59 0 0,0
02.07.2020 16:00:00 20,4 14,5 21,8 22,5 20,5 14 7 27 14 W 1020,0 60 0 0,0
02.07.2020 15:00:00 20,6 14,3 23,9 22,4 20,5 16 9 26 14 WNW 1019,8 60 7 0,0
02.07.2020 14:00:00 19,6 14,2 19,5 22,3 20,5 13 7 32 17 NNW 1019,8 51 0 0,0
02.07.2020 13:00:00 17,9 14,6 18,6 22,3 20,5 22 12 32 18 NNW 1019,8 40 1 0,0
02.07.2020 12:00:00 16,7 15,1 17,1 22,4 20,5 11 6 19 10 NW 1019,7 8 0 0,4
02.07.2020 11:00:00 17,7 15,5 18,0 22,4 20,5 9 5 16 8 NNW 1019,1 12 0 0,0
02.07.2020 10:00:00 18,5 15,6 19,0 22,5 20,5 9 5 14 7 W 1018,7 19 0 0,0
02.07.2020 09:00:00 18,6 15,5 18,4 22,5 20,5 7 4 12 6 WNW 1018,4 60 0 0,0
02.07.2020 08:00:00 18,4 15,5 17,5 22,6 20,5 5 3 8 5 WSW 1018,0 55 0 0,0
02.07.2020 07:00:00 18,2 15,6 17,2 22,7 20,5 4 2 8 4 WSW 1017,5 53 0 0,0
02.07.2020 06:00:00 17,9 15,7 17,3 22,8 20,5 3 1 7 4 W 1017,1 54 0 0,0
02.07.2020 05:00:00 18,0 15,8 17,5 22,9 20,5 4 2 8 4 W 1017,1 52 0 0,0
02.07.2020 04:00:00 18,3 16,1 17,8 23,0 20,5 5 3 8 5 WNW 1017,2 60 0 0,0
02.07.2020 03:00:00 18,6 16,4 17,9 23,1 20,5 5 3 8 5 W 1017,3 60 0 0,0
02.07.2020 02:00:00 18,7 16,7 18,0 23,2 20,4 4 2 19 10 W 1017,3 60 0 0,0
02.07.2020 01:00:00 19,0 17,0 18,4 23,3 20,5 12 6 20 11 NNW 1017,3 55 0 0,0
02.07.2020 00:00:00 19,6 17,4 19,1 23,4 20,5 14 8 20 11 NW 1017,1 53 0 0,0
01.07.2020 23:00:00 20,2 17,4 19,2 23,4 20,5 3 2 10 5 W 1016,9 46 0 0,0
01.07.2020 22:00:00 20,5 17,5 19,9 23,5 20,5 7 4 18 10 WNW 1016,2 53 0 0,0
01.07.2020 21:00:00 21,4 17,6 20,9 23,4 20,5 6 4 13 7 W 1016,1 60 0 0,0
01.07.2020 20:00:00 21,8 17,6 22,1 23,4 20,5 8 5 17 9 WNW 1015,8 60 0 0,0
01.07.2020 19:00:00 21,8 17,2 22,4 23,4 20,5 12 6 23 12 WNW 1015,6 60 0 0,0
01.07.2020 18:00:00 22,2 18,0 22,7 23,4 20,5 11 6 19 11 WNW 1015,6 60 0 0,0
01.07.2020 17:00:00 22,8 17,5 23,9 23,3 20,5 14 7 21 11 W 1015,5 60 0 0,0
01.07.2020 16:00:00 22,5 18,5 22,4 23,3 20,5 11 6 18 10 WNW 1015,4 35 0 0,0
01.07.2020 15:00:00 21,6 18,4 21,6 23,2 20,5 3 2 15 8 NW 1015,2 56 0 0,0
01.07.2020 14:00:00 20,4 18,2 20,7 23,2 20,5 9 5 22 12 NW 1015,0 20 0 0,0
01.07.2020 13:00:00 21,4 18,6 21,2 23,2 20,5 9 5 19 11 WNW 1014,5 52 0 0,0
01.07.2020 12:00:00 20,5 18,3 19,9 23,2 20,4 10 5 26 14 NW 1014,2 16 0 0,6
01.07.2020 11:00:00 20,5 17,9 22,0 23,3 20,4 6 4 13 7 SW 1013,6 29 2 0,0
01.07.2020 10:00:00 18,7 17,9 18,2 23,4 20,5 7 4 12 7 SW 1013,5 12 2 0,0
01.07.2020 09:00:00 16,9 16,1 17,4 23,5 20,5 8 4 13 7 W 1013,3 6 8 0,0
01.07.2020 08:00:00 16,4 15,4 15,6 23,7 20,4 10 6 15 8 W 1012,7 1,2 32 0,0
01.07.2020 07:00:00 16,2 15,1 14,7 23,9 20,4 8 5 12 7 WSW 1012,3 16 0 0,0
01.07.2020 06:00:00 16,8 15,5 14,3 24,1 20,4 9 5 12 7 WSW 1012,1 20 0 0,0
01.07.2020 05:00:00 16,9 15,4 13,8 24,3 20,4 3 2 8 4 WSW 1011,8 57 0 0,0
01.07.2020 04:00:00 16,5 14,7 14,2 24,6 20,4 8 5 9 5 W 1011,7 60 0 0,0
01.07.2020 03:00:00 17,5 15,5 14,6 24,8 20,4 2 1 10 6 N 1011,3 60 0 0,0
01.07.2020 02:00:00 17,8 15,2 15,3 25,0 20,4 3 1 5 3 NNE 1012,3 60 0 0,0
01.07.2020 01:00:00 19,1 16,9 16,0 25,2 20,4 3 2 9 5 ESE 1012,6 60 0 0,0
01.07.2020 00:00:00 18,9 16,3 16,2 25,3 20,5 8 4 11 6 NE 1012,5 60 0 0,0
30.06.2020 23:00:00 20,3 16,7 17,1 25,4 20,5 0 0 6 3 N 1012,6 60 0 0,0
30.06.2020 22:00:00 22,8 16,8 18,3 25,3 20,5 4 2 6 3 N 1012,3 60 19 0,0
30.06.2020 21:00:00 26,2 15,9 24,0 25,2 20,7 4 2 11 6 ENE 1012,2 60 60 0,0
30.06.2020 20:00:00 26,9 16,2 28,6 25,0 20,8 7 4 17 9 E 1012,4 60 60 0,0
30.06.2020 19:00:00 27,2 15,9 32,1 24,7 20,8 9 5 16 9 ESE 1012,5 60 60 0,0
30.06.2020 18:00:00 27,2 15,9 34,4 24,2 20,8 8 4 20 11 SE 1013,2 60 60 0,0
30.06.2020 17:00:00 26,9 17,1 36,6 23,7 20,8 4 2 17 9 N 1013,5 60 60 0,0
30.06.2020 16:00:00 26,4 16,0 34,9 23,2 20,4 8 4 18 10 N 1014,2 60 60 0,0
30.06.2020 15:00:00 25,4 15,7 37,0 22,8 20,4 5 3 17 9 NNE 1014,9 60 60 0,0
30.06.2020 14:00:00 24,3 14,7 36,7 22,4 20,4 7 4 15 8 SSE 1015,7 60 60 0,0
30.06.2020 13:00:00 23,3 13,2 34,4 22,2 20,4 4 2 13 7 N 1016,2 20 60 0,0
30.06.2020 12:00:00 22,4 14,5 27,2 22,1 20,4 3 1 17 9 SSW 1016,6 20 52 0,0
30.06.2020 11:00:00 20,8 14,2 25,3 22,1 20,5 4 2 11 6 NE 1017,1 19 53 0,0
30.06.2020 10:00:00 19,8 14,2 23,5 22,2 20,4 4 2 10 6 N 1017,4 60 60 0,0
30.06.2020 09:00:00 18,0 13,9 16,7 22,3 20,4 5 3 9 5 E 1017,8 60 60 0,0
30.06.2020 08:00:00 14,4 13,3 11,1 22,5 20,4 4 2 6 3 ENE 1018,1 60 52 0,0
30.06.2020 07:00:00 11,5 10,6 9,4 22,8 20,4 4 2 5 3 ENE 1018,1 47 16 0,0
30.06.2020 06:00:00 10,9 10,0 9,5 23,0 20,4 0 0 7 4 N 1018,3 60 0 0,0
30.06.2020 05:00:00 11,2 10,1 10,0 23,2 20,4 3 2 6 3 E 1018,4 40 0 0,0
30.06.2020 04:00:00 11,8 10,5 9,9 23,5 20,4 0 0 4 2 N 1018,8 60 0 0,0
30.06.2020 03:00:00 12,1 10,5 9,5 23,8 20,4 2 1 4 2 NE 1019,2 60 0 0,0
30.06.2020 02:00:00 13,4 11,5 9,6 24,0 20,4 0 0 2 1 N 1019,5 60 0 0,0
30.06.2020 01:00:00 14,1 11,4 10,4 24,2 20,4 0 0 7 4 N 1019,9 60 0 0,0
30.06.2020 00:00:00 15,1 11,9 11,4 24,3 20,4 5 3 9 5 W 1019,8 60 0 0,0
29.06.2020 23:00:00 15,8 11,6 12,7 24,4 20,4 7 4 14 7 WNW 1019,6 60 0 0,0
29.06.2020 22:00:00 17,7 11,7 15,3 24,5 20,4 10 6 18 10 WNW 1019,2 60 19 0,0
29.06.2020 21:00:00 20,6 12,3 19,4 24,4 20,4 13 7 26 14 WNW 1019,2 55 60 0,0
29.06.2020 20:00:00 21,9 12,2 23,1 24,3 20,5 16 9 26 14 WNW 1019,0 55 60 0,0
29.06.2020 19:00:00 22,7 12,9 24,9 24,1 20,6 15 8 25 14 NW 1019,3 60 51 0,0
29.06.2020 18:00:00 23,0 12,9 23,9 23,9 20,5 17 9 30 16 WNW 1019,6 60 50 0,0
29.06.2020 17:00:00 22,3 13,1 24,3 23,7 20,4 16 9 26 14 W 1019,9 60 22 0,0
29.06.2020 16:00:00 22,1 14,0 25,0 23,5 20,4 13 7 28 15 W 1020,4 60 10 0,0
29.06.2020 15:00:00 22,3 14,2 23,8 23,4 20,4 15 8 27 15 W 1020,8 60 19 0,0
29.06.2020 14:00:00 20,6 14,7 22,6 23,3 20,3 13 7 21 11 WNW 1021,3 60 0 0,0
29.06.2020 13:00:00 20,2 14,3 22,0 23,2 20,4 14 8 22 12 WNW 1021,4 60 0 0,0
29.06.2020 12:00:00 20,4 14,5 20,4 23,2 20,3 14 8 22 12 WNW 1021,2 60 0 0,0
29.06.2020 11:00:00 19,2 14,2 20,4 23,2 20,3 11 6 19 10 NW 1021,2 57 5 0,0
29.06.2020 10:00:00 19,3 14,8 20,1 23,3 20,3 10 5 22 12 NNW 1021,1 60 0 0,0
29.06.2020 09:00:00 18,9 15,2 19,1 23,4 20,3 9 5 18 10 NW 1021,0 54 0 0,0
29.06.2020 08:00:00 18,6 15,7 18,0 23,5 20,3 11 6 16 9 W 1020,7 60 0 0,0
29.06.2020 07:00:00 18,4 15,5 17,9 23,6 20,3 9 5 23 12 W 1020,2 60 0 0,0
29.06.2020 06:00:00 18,8 16,0 18,2 23,8 20,3 16 9 24 13 W 1019,7 60 0 0,0
29.06.2020 05:00:00 19,2 17,2 18,6 23,9 20,3 10 5 16 8 W 1019,4 49 0 0,0
29.06.2020 04:00:00 19,2 17,0 18,5 24,1 20,3 9 5 16 8 W 1019,4 48 0 0,0
29.06.2020 03:00:00 19,2 16,6 18,7 24,2 20,3 9 5 16 9 W 1019,5 46 0 0,0
29.06.2020 02:00:00 19,7 16,3 18,7 24,4 20,3 6 3 15 8 WSW 1019,9 58 0 0,0
29.06.2020 01:00:00 19,6 15,7 18,4 24,5 20,3 8 4 16 9 W 1020,1 60 0 0,0
29.06.2020 00:00:00 19,9 16,1 18,5 24,6 20,3 10 5 16 9 W 1019,9 60 0 0,0
28.06.2020 23:00:00 20,5 15,9 19,3 24,7 20,3 10 6 18 10 WNW 1020,0 60 0 0,0
28.06.2020 22:00:00 22,3 17,0 21,4 24,7 20,3 11 6 18 10 WNW 1019,4 55 0 0,0
28.06.2020 21:00:00 23,6 17,1 21,7 24,6 20,4 6 3 13 7 SSW 1018,9 37 31 0,0
28.06.2020 20:00:00 24,6 17,3 25,1 24,5 20,5 6 4 15 8 SW 1018,8 60 34 0,0
28.06.2020 19:00:00 24,8 17,3 26,1 24,3 20,5 9 5 15 8 WNW 1018,9 60 23 0,0
28.06.2020 18:00:00 23,6 17,6 24,9 24,2 20,5 8 4 16 9 NW 1019,0 60 8 0,0
28.06.2020 17:00:00 23,5 17,3 25,4 24,1 20,4 11 6 16 9 WNW 1019,2 20 0 0,0
28.06.2020 16:00:00 23,6 16,9 27,3 23,9 20,5 6 4 14 8 WNW 1019,3 60 16 0,0
28.06.2020 15:00:00 23,0 16,8 23,5 23,8 20,2 5 3 13 7 NNW 1019,5 60 0 0,0
28.06.2020 14:00:00 22,0 16,3 23,9 23,7 20,2 9 5 14 7 W 1019,9 60 0 0,0
28.06.2020 13:00:00 23,2 16,3 26,1 23,7 20,5 5 3 10 5 WNW 1019,9 60 10 0,0
28.06.2020 12:00:00 21,2 15,9 23,1 23,7 20,4 6 3 10 5 W 1020,4 60 0 0,0
28.06.2020 11:00:00 20,7 15,7 21,4 23,8 20,4 3 2 6 3 N 1020,3 60 0 0,0
28.06.2020 10:00:00 20,4 15,6 20,9 23,9 20,4 0 0 6 4 N 1020,3 53 0 0,0
28.06.2020 09:00:00 19,7 15,8 19,3 24,1 20,4 0 0 4 2 N 1020,0 60 0 0,0
28.06.2020 08:00:00 19,1 16,1 18,9 24,2 20,4 3 1 5 3 N 1019,8 20 0 0,0
28.06.2020 07:00:00 18,8 16,9 18,4 24,3 20,4 0 0 6 3 N 1019,5 38 0 0,0
28.06.2020 06:00:00 18,8 16,8 18,3 24,5 20,3 3 2 9 5 WNW 1019,5 44 0 0,0
28.06.2020 05:00:00 18,9 16,7 18,4 24,7 20,3 7 4 13 7 WNW 1019,4 59 0 0,0
28.06.2020 04:00:00 19,0 16,6 18,1 24,9 20,3 10 5 13 7 W 1019,0 60 0 0,0
28.06.2020 03:00:00 19,1 16,3 18,4 25,1 20,2 5 3 14 7 WNW 1018,6 60 0 0,0
28.06.2020 02:00:00 19,6 16,1 18,6 25,3 20,3 6 4 15 8 NNW 1018,5 60 0 0,0
28.06.2020 01:00:00 20,6 16,2 19,0 25,4 20,3 4 2 8 4 N 1018,3 60 0 0,0
28.06.2020 00:00:00 21,2 15,9 19,4 25,6 20,3 6 3 10 5 N 1018,0 60 0 0,0
27.06.2020 23:00:00 21,4 16,1 19,0 25,7 20,3 6 4 17 9 N 1017,6 60 0 0,0
27.06.2020 22:00:00 22,8 16,1 20,4 25,7 20,3 10 5 15 8 NNW 1016,8 60 19 0,0
27.06.2020 21:00:00 25,9 17,0 24,3 25,6 20,4 8 4 15 8 NNW 1016,2 60 60 0,0
27.06.2020 20:00:00 27,1 16,4 28,7 25,5 20,5 10 5 17 9 NNW 1015,9 60 60 0,0
27.06.2020 19:00:00 27,5 16,5 29,7 25,2 20,5 13 7 27 14 NNW 1015,8 60 58 0,0
27.06.2020 18:00:00 28,7 16,9 29,5 24,9 20,6 11 6 29 15 WNW 1016,0 60 46 0,0

tt = temperature
td = dewpoint
tt 5cm = temperature 5cm
tt -20cm = temperature -20cm
tt -100cm = temperature -100cm
ff = wind speed
fx = gusts
dd = wind direction
ppp = reduced air pressure
vv = visibility
sd = sunshine duration
rr = precipitation

Next stations